Showing default

METEOR M2, 40069

Orbit data source: Space-Track

METEOR M2, 40069 is a Commonwealth of Independent States-origin payload satellite in SSO that was launched on Tue, 08 Jul 2014 UTC via a SOYUZ-2-1B launch vehicle from the Tyuratam Missile And Space Complex (TTMTR). Payload-class satellites include a variety of spacecraft equipped with specific instruments for various scientific and technological missions. These include communications satellites like Starlink; space stations such as the ISS; scientific satellites like the Hubble; Earth observation satellites from companies like Planet Labs, Umbra, and HawkEye 360; GPS; miniature CubeSats for education and research; and military/defense satellites.

Loading next visibility...
Identifier
40069, 2014-037A
Orbit
SSO
Country
Flag of CISCIS
Related business
Manufacturer
VNIIEM
Mission
Partially operational Civil Weather
Bus & Motor
RESURS-O, Unknown motor
Mass
2,879 kg wet, ~2,600 kg dry
Launch date (UTC)
2014-07-08 (11 years ago)
Launch vehicle
SOYUZ-2-1B
Launch site
Tyuratam Missile And Space Complex (TTMTR)
Object type
Payload
Rocket body
Debris
Shape & HBR
Cyl + 2 Pan, 7.0 m
Radar Cross Section
26.744 m², Large (>1 m²)

Expand to show TLE details & history
Last TLE update: 5 hours ago

TLE from 5 hours ago
0 METEOR M2
1 40069U 14037A   25353.85810302  .00000132  00000-0  79599-4 0  9998
2 40069  98.4900 331.1696 0005365 187.2258 172.8844 14.21389090593842
Epoch: 2025-12-19T20:35Z
TLE epoch observation values (Epoch: 2025-12-19T20:35:40.100Z)
Latitude
Longitude
-66.44071°
Altitude
827.415 km
Speed
7.437 km/s
True Right ascension
22h 04m 40s
True Declination
0° 00' 00"
Sunlit
Object was in daylight at epoch
Visualization orbit readout
Latitude
Unknown
Longitude
Unknown
Altitude
Unknown
Speed
Unknown
Apparent Right ascension
Unknown
Apparent Declination
Unknown
Sunlit
N/A
Visualization observer readout
Local Sidereal Time
00:39:12
Azimuth
Unknown
Elevation
Unknown
Doppler factor
Unknown
Orbital elements
Apogee altitude
821.666 km
Perigee altitude
813.945 km
Semi-major axis
7,195.942 km
Eccentricity
0.00054
Inclination
98.49°
RAAN
331.1696°
Arg. of periapsis
187.2258°
True anomaly
172.89201°
Mean anomaly
172.8844°
Eccentric anomaly
172.88821°
Mean motion
3.55559 °/min
Orbital period
101.25 mins
BSTAR
0.000079599
Loading maneuver chart data...
Computing Atmospheric mass density...
Loading historical data...
Loading historical data...
Loading historical data...
Loading historical data...
Loading historical data...
Loading historical data...
Loading historical data...

Documentation

Showing up to 5 results
|